Showing default

HULIANWANG DIGUI-155, 68129

Orbit data source: Space-Track

HULIANWANG DIGUI-155, 68129 is a payload satellite owned by Zhongguo Xingwang (CN) in LEO that was launched on Thu, 12 Mar 2026 UTC via a CHANG ZHENG 8A launch vehicle from the Wenchang Satellite Launch Center (WSC). Payload-class satellites include a variety of spacecraft equipped with specific instruments for various scientific and technological missions. These include communications satellites like Starlink; space stations such as the ISS; scientific satellites like the Hubble; Earth observation satellites from companies like Planet Labs, Umbra, and HawkEye 360; GPS; miniature CubeSats for education and research; and military/defense satellites.

Loading next visibility...
Identifier
68129, 2026-047A
Orbit
LEO
Country
Flag of CNCN / PRC
Related business
Manufacturer
CAST?
Mission
Operational spacecraft
Bus & Motor
XINGWANG C, Unknown motor
Mass
~700 kg wet, ~700 kg dry
Launch date (UTC)
2026-03-12 (2 months ago)
Launch vehicle
CHANG ZHENG 8A
Launch site
Wenchang Satellite Launch Center (WSC)
Object type
Payload
Rocket body
Debris
Shape & HBR
Unknown shape, 1.1 m
Radar Cross Section
RCS unknown

Expand to show TLE details & history
Last TLE update: 22 hours ago

TLE from 22 hours ago
0 HULIANWANG DIGUI-155
1 68129U 26047A   26118.65755506 -.00000124  00000-0  78922-5 0  9993
2 68129  50.0135 234.4198 0000444 297.1958  62.8875 13.43298887  6472
Epoch: 2026-04-28T15:46Z
TLE epoch observation values (Epoch: 2026-04-28T15:46:52.757Z)
Latitude
-0.00001°
Longitude
141.07025°
Altitude
1,097.375 km
Speed
7.305 km/s
True Right ascension
15h 37m 40s
True Declination
0° 00' 00"
Sunlit
Object was in full shadow at epoch
Visualization orbit readout
Latitude
Unknown
Longitude
Unknown
Altitude
Unknown
Speed
Unknown
Apparent Right ascension
Unknown
Apparent Declination
Unknown
Sunlit
N/A
Visualization observer readout
Local Sidereal Time
21:27:22
Azimuth
Unknown
Elevation
Unknown
Doppler factor
Unknown
Orbital elements
Apogee altitude
1,098.056 km
Perigee altitude
1,097.392 km
Semi-major axis
7,475.861 km
Eccentricity
0.00004
Inclination
50.0135°
RAAN
234.4198°
Arg. of periapsis
297.1958°
True anomaly
62.89203°
Mean anomaly
62.8875°
Eccentric anomaly
62.88976°
Mean motion
3.35777 °/min
Orbital period
107.21 mins
BSTAR
0.0000078922
Loading maneuver chart data...
Computing Atmospheric mass density...
Loading historical data...
Loading historical data...
Loading historical data...
Loading historical data...
Loading historical data...
Loading historical data...
Loading historical data...

Documentation

Showing up to 5 results
|